www.pogodaiklimat.ru

Погода и климат >> Архив погоды >> Индия >> Ludhiana


ПОГОДА в Ludhiana

  • Прогноз погоды в Ludhiana
  • Монитор погоды в Ludhiana
  • Климат города

АРХИВ ПОГОДЫ в Ludhiana

Время (UTC), дата Ветер
(напр.,м/с)
 
Видим.   Явления Облачность Т
(С)
Тd
(С)
f
(%)
Тe
(С)
Тes
(С)
Комфортность P
(гПа)
Po
(гПа)
Тmin
(С)
Tmax
(С)
R
(мм)
R24
(мм)
S
(см)
03 14.06 Ю 3 1000 м пыль ясно +34.0 +20.6 46 +41 +48 опасность
перегрева
992.7 993.0 +32.3 +43.1
06 14.06 З 4 1000 м пыль ясно +37.2 +19.9 37 +43 +57 опасность
перегрева
992.3 992.0
09 14.06 ЮЗ 2 500 м пыль ясно +40.0 +18.3 28 +43 +60 опасность
перегрева
990.4 990.0
12 14.06 ЮЗ 2 500 м пыль ясно +39.6 +18.9 30 +44 +47 опасность
перегрева
988.7 989.0 +40.6
03 15.06 ЮЗ 2 200 м пыль ясно +33.6 +20.1 45 +40 +48 очень
душно
992.5 993.0 +31.1 +40.6
06 15.06 ЮЗ 2 200 м пыль ясно +34.2 +20.5 45 +41 +62 опасность
перегрева
994.5 995.0
09 15.06 Ю 3 200 м пыль {туман} ?/? +35.4 +19.8 40 +41 +41 опасность
перегрева
993.8 994.0
12 15.06 Ю 2 500 м пыль {туман} ?/? +36.0 +19.5 38 +41 +41 опасность
перегрева
992.7 993.0 +36.0
03 16.06 В 5 2000 м дымка {гроза, дождь} ?/? +25.8 +21.6 78 +33 +33 очень
душно
998.9 999.0 +23.7 +36.0 8
06 16.06 СВ 4 2000 м дымка {гроза, дождь} 10/6 750 м
[Cb cap As op]
+26.4 +21.6 75 +34 +35 очень
душно
1000.2 1000.0
09 16.06 В 3 4000 м мгла 9/0 2000 м
[As trans]
+30.0 +22.4 64 +39 +46 очень
душно
997.9 998.0
12 16.06 С 8 2000 м мгла 9/0 2000 м
[As trans]
+28.2 +22.9 73 +38 +38 очень
душно
998.3 998.0 +31.2
03 17.06 ЮЗ 2 1000 м слабый дождь 10/5 750 м
[Sc As op]
+22.4 +20.9 91 +29 +30 очень
душно
1002.9 1003.0 +21.3 +31.2 38
06 17.06 В 3 4000 м дымка 9/0 2000 м
[Ac trans]
+24.8 +21.5 82 +32 +39 очень
душно
1000.7 1001.0 2
09 17.06 штиль 0 4000 м мгла 5/0
[Ac trans]
+28.8 +21.0 63 +36 +52 опасность
солнечного
удара
1000.4 1000.0 2
12 17.06 СВ 1 4000 м мгла 3/0
[Ac trans]
+29.8 +22.5 65 +39 +42 очень
душно
998.4 998.0 +29.9 2
03 18.06 ЮЗ 2 2000 м дымка 9/5 900 м
[Sc Ac trans]
+26.8 +23.3 81 +36 +38 очень
душно
1000.6 1001.0 +23.9 +29.9 2
06 18.06 СВ 3 2000 м мгла 9/6 1200 м
[Cu Sc As op]
+29.2 +23.7 72 +40 +43 очень
душно
1001.0 1001.0
09 18.06 В 2 4000 м мгла 9/5 900 м
[Sc Ac trans]
+31.6 +23.5 62 +42 +47 опасность
перегрева
999.0 999.0
12 18.06 СЗ 3 4000 м мгла 9/6 750 м
[Cu Sc As op]
+31.2 +23.7 64 +42 +43 опасность
перегрева
997.8 998.0 +33.3
03 19.06 С 2 2000 м мгла ясно +29.0 +22.2 67 +38 +46 очень
душно
1000.2 1000.0 +25.0 +33.3
06 19.06 З 2 4000 м мгла ясно +33.2 +21.2 49 +41 +63 опасность
перегрева
999.4 999.0
09 19.06 ЮЗ 3 4000 м мгла ясно +35.2 +19.6 40 +41 +56 опасность
перегрева
998.1 998.0
12 19.06 З 3 4000 м мгла ясно +35.0 +20.8 44 +42 +45 опасность
перегрева
996.7 997.0 +36.3
03 20.06 СВ 2 1000 м мгла ясно +31.0 +22.2 60 +40 +49 очень
душно
1001.2 1001.0 +26.3 +36.3
06 20.06 С 1 4000 м мгла ясно +35.4 +20.2 41 +41 +66 опасность
перегрева
1000.7 1001.0
09 20.06 Ю 1 4000 м 1/1 1200 м
[Cu hum]
+37.8 +20.4 36 +44 +62 опасность
перегрева
998.2 998.0
12 20.06 С 3 4000 м мгла 3/3 <50 м
[]
+37.4 +19.8 36 +43 +45 опасность
перегрева
996.8 997.0 +38.9

 

Местоположение метеостанции Ludhiana (Punjab, Индия): широта 30.87 долгота 75.93 высота над уровнем моря 255 м.

В архиве по умолчанию представлена погода в Ludhiana за последнюю неделю. Архивные данные за месяц целиком и за предыдущие месяцы, начиная с января 2011 года, Вы можете получить, выбрав интересующий диапазон дат из раскрывающегося списка и нажав кнопку "Ввод!".


*Определитесь, кто Вы:
робот инопланетянин человек

Внимание! Время в таблицах - всемирное. Для получения местного времени необходимо прибавить поправку, которая в Ludhiana равна 5.5 ч.

Смотрите также архив погоды в соседних городах и на ближайших метеорологических станциях:

Погода в Una (Himachal Pradesh, Индия) (74 км)
Погода в Patiala (Punjab, Индия) (79 км)
Погода в Chandigarh (Chandigarh, Индия) (85 км)
Погода в Ambala (Haryana, Индия) (96 км)
Погода в Sundernagar (Himachal Pradesh, Индия) (118 км)
Погода в Shimla (Himachal Pradesh, Индия) (121 км)
Погода в Amritsar (Punjab, Индия) (132 км)
Погода в Kangra (Himachal Pradesh, Индия) (141 км)
Погода в Bhuntar (Himachal Pradesh, Индия) (159 км)
Погода в Dharamsala (Himachal Pradesh, Индия) (161 км)

Пояснения к столбцам:

Ветер - указаны скорость ветра в м/с - средняя за 10 мин, порывы в срок и между сроками (в фигурных скобках) и направление, откуда дует ветер: С - северный, СВ - северо-восточный, В - восточный, ЮВ - юго-восточный, Ю - южный, ЮЗ - юго-западный, З - западный, СЗ - северо-западный.
Видимость - горизонтальная дальность видимости в метрах или километрах. При видимости от 1 до 10 км при отсутствии осадков обычно наблюдается дымка, при ухудшении видимости до 1 км и менее - туман. В сухую погоду видимость может ухудшаться дымом, пылью или мглою.
Явления - указаны атмосферные явления, наблюдавшиеся в срок или в последний час перед сроком; фигурными скобками обозначены явления, наблюдавшиеся между сроками (за 1-3 часа до срока); квадратными скобками обозначены град или гололедные отложения с указанием их диаметра в мм.
Облачность - указаны через наклонную черту общая и нижняя облачность в баллах и высота нижней границы облаков в метрах; квадратными скобками обозначены формы облаков: Ci - перистые, Cs - перисто-слоистые, Cc - перисто-кучевые, Ac - высококучевые, As - высокослоистые, Sc - слоисто-кучевые, Ns - слоисто-дождевые, Cu - кучевые, Cb - кучево-дождевые. Подробнее классификацию облаков см. в Атласе облаков (PDF).
T - Температура воздуха - температура, измеренная на высоте 2 м над землей.
Td - Температура точки росы - температура, при понижении до которой содержащийся в воздухе водяной пар достигнет насыщения.
f - Относительная влажность воздуха - влажноcть воздуха, измеренная на высоте 2 м над землей.
Te - Эффективная температура - температура, которую ощущает одетый по сезону человек в тени. Характеристика душности погоды. При расчете учитывается влияние влажности воздуха и скорости ветра на теплоощущения человека.
Tes - Эффективная температура на солнце - температура, которую ощущает человек, с поправкой на солнечный нагрев. Характеристика знойности погоды. Зависит от высоты солнца над горизонтом, облачности и скорости ветра. Ночью, в пасмурную погоду, а также при ветре 12 м/с и более поправка равна нулю.
P - Атмосферное давление - приведенное к уровню моря атмосферное давление.
Po - Атмосферное давление - измеренное на уровне метеостанции атмосферное давление.
Tmin - Минимальная температура - минимум температуры воздуха на высоте 2 м над землей.
Tmax - Максимальная температура - максимум температуры воздуха на высоте 2 м над землей.
R - Количество осадков - Количество выпавших осадков за период времени, мм. При наведении курсора мыши на число - период времени, за который выпало указанное количество осадков.
R24 - Количество осадков - Количество выпавших осадков за 24 часа, мм.
S - Снежный покров - Высота снежного покрова, см. При наведении курсора мыши на число - состояние снежного покрова и степень покрытия местности в баллах.